Time,TemperatureF,DewpointF,PressureIn,WindDirection,WindDirectionDegrees,WindSpeedMPH,WindSpeedGustMPH,Humidity,HourlyPrecipIn,Conditions,Clouds,dailyrainin,SoftwareType,DateUTC
2013-01-22 00:04:00,59.0,58.0,30.06,East,90,0.0,0.0,97,0.00,,,0.04,,2013-01-22 05:04:00,
2013-01-22 00:12:00,59.0,58.0,30.06,East,90,0.0,0.0,97,0.00,,,0.04,,2013-01-22 05:12:00,
2013-01-22 00:23:00,59.0,58.0,30.06,North,357,0.0,1.0,97,0.00,,,0.04,,2013-01-22 05:23:00,
2013-01-22 00:32:00,59.0,58.0,30.07,WNW,285,0.0,1.0,97,0.00,,,0.04,,2013-01-22 05:32:00,
2013-01-22 00:43:00,59.0,58.0,30.07,WNW,285,0.0,1.0,97,0.00,,,0.04,,2013-01-22 05:43:00,
2013-01-22 00:53:00,59.0,58.0,30.07,East,90,0.0,0.0,97,0.00,,,0.04,,2013-01-22 05:53:00,
2013-01-22 01:02:00,60.0,59.0,30.07,WNW,287,0.0,1.0,97,0.00,,,0.04,,2013-01-22 06:02:00,
2013-01-22 01:12:00,60.0,59.0,30.07,WNW,287,0.0,1.0,97,0.00,,,0.04,,2013-01-22 06:12:00,
2013-01-22 01:22:00,59.0,58.0,30.07,East,90,0.0,0.0,97,0.00,,,0.04,,2013-01-22 06:22:00,
2013-01-22 01:32:00,59.0,58.0,30.07,East,90,0.0,0.0,96,0.00,,,0.04,,2013-01-22 06:32:00,
2013-01-22 01:43:00,59.0,58.0,30.07,East,90,0.0,0.0,96,0.00,,,0.04,,2013-01-22 06:43:00,
2013-01-22 01:53:00,59.0,58.0,30.07,East,90,0.0,0.0,96,0.00,,,0.04,,2013-01-22 06:53:00,
2013-01-22 02:02:00,59.0,58.0,30.07,East,90,0.0,0.0,96,0.00,,,0.04,,2013-01-22 07:02:00,
2013-01-22 02:12:00,59.0,58.0,30.07,East,90,0.0,0.0,96,0.00,,,0.04,,2013-01-22 07:12:00,
2013-01-22 02:22:00,59.0,58.0,30.07,NNW,348,0.0,1.0,95,0.00,,,0.04,,2013-01-22 07:22:00,
2013-01-22 02:32:00,59.0,57.0,30.06,North,10,0.0,2.0,93,0.00,,,0.04,,2013-01-22 07:32:00,
2013-01-22 02:42:00,59.0,57.0,30.06,North,10,0.0,2.0,93,0.00,,,0.04,,2013-01-22 07:42:00,
2013-01-22 02:53:00,59.0,56.0,30.06,NNE,18,0.0,2.0,90,0.00,,,0.04,,2013-01-22 07:53:00,
2013-01-22 03:02:00,59.0,55.0,30.06,North,352,0.0,1.0,88,0.00,,,0.04,,2013-01-22 08:02:00,
2013-01-22 03:12:00,59.0,55.0,30.06,North,352,0.0,1.0,88,0.00,,,0.04,,2013-01-22 08:12:00,
2013-01-22 03:22:00,60.0,56.0,30.05,North,7,0.0,1.0,87,0.00,,,0.04,,2013-01-22 08:22:00,
2013-01-22 03:32:00,59.0,55.0,30.06,NNW,332,0.0,1.0,88,0.00,,,0.04,,2013-01-22 08:32:00,
2013-01-22 03:42:00,59.0,55.0,30.06,NNW,332,0.0,1.0,88,0.00,,,0.04,,2013-01-22 08:42:00,
2013-01-22 03:53:00,59.0,55.0,30.06,North,350,0.0,2.0,88,0.00,,,0.04,,2013-01-22 08:53:00,
2013-01-22 04:02:00,59.0,55.0,30.05,NNE,15,0.0,1.0,88,0.00,,,0.04,,2013-01-22 09:02:00,
2013-01-22 04:12:00,59.0,55.0,30.05,NNE,15,0.0,1.0,88,0.00,,,0.04,,2013-01-22 09:12:00,
2013-01-22 04:22:00,59.0,55.0,30.06,North,7,0.0,1.0,87,0.00,,,0.04,,2013-01-22 09:22:00,
2013-01-22 04:32:00,59.0,55.0,30.06,NNW,344,0.0,1.0,87,0.00,,,0.04,,2013-01-22 09:32:00,
2013-01-22 04:42:00,59.0,55.0,30.06,NNW,344,0.0,1.0,87,0.00,,,0.04,,2013-01-22 09:42:00,
2013-01-22 04:53:00,58.0,54.0,30.06,North,357,0.0,1.0,87,0.00,,,0.04,,2013-01-22 09:53:00,
2013-01-22 05:02:00,58.0,54.0,30.05,NNE,30,0.0,3.0,86,0.00,,,0.04,,2013-01-22 10:02:00,
2013-01-22 05:12:00,58.0,54.0,30.05,NNE,30,0.0,3.0,86,0.00,,,0.04,,2013-01-22 10:12:00,
2013-01-22 05:22:00,58.0,54.0,30.06,North,2,0.0,1.0,86,0.00,,,0.04,,2013-01-22 10:22:00,
2013-01-22 05:32:00,58.0,54.0,30.06,NNE,30,0.0,1.0,86,0.00,,,0.04,,2013-01-22 10:32:00,
2013-01-22 05:42:00,58.0,54.0,30.06,NNE,30,0.0,1.0,86,0.00,,,0.04,,2013-01-22 10:42:00,
2013-01-22 05:52:00,58.0,54.0,30.07,North,0,0.0,1.0,86,0.00,,,0.04,,2013-01-22 10:52:00,
2013-01-22 06:02:00,58.0,54.0,30.07,East,90,0.0,0.0,88,0.00,,,0.04,,2013-01-22 11:02:00,
2013-01-22 06:12:00,58.0,54.0,30.07,East,90,0.0,0.0,88,0.00,,,0.04,,2013-01-22 11:12:00,
2013-01-22 06:23:00,57.0,53.0,30.07,East,90,0.0,0.0,88,0.00,,,0.04,,2013-01-22 11:23:00,
2013-01-22 06:33:00,57.0,53.0,30.09,East,90,0.0,0.0,88,0.00,,,0.04,,2013-01-22 11:33:00,
2013-01-22 06:43:00,57.0,53.0,30.09,East,90,0.0,0.0,88,0.00,,,0.04,,2013-01-22 11:43:00,
2013-01-22 06:53:00,57.0,53.0,30.09,East,90,0.0,0.0,88,0.00,,,0.04,,2013-01-22 11:53:00,
2013-01-22 07:04:00,56.0,53.0,30.10,East,90,0.0,0.0,89,0.00,,,0.04,,2013-01-22 12:04:00,
2013-01-22 07:13:00,56.0,53.0,30.10,East,90,0.0,0.0,89,0.00,,,0.04,,2013-01-22 12:13:00,
2013-01-22 07:23:00,56.0,53.0,30.11,East,90,0.0,0.0,89,0.00,,,0.04,,2013-01-22 12:23:00,
2013-01-22 07:33:00,56.0,53.0,30.11,East,90,0.0,0.0,89,0.00,,,0.04,,2013-01-22 12:33:00,
2013-01-22 07:43:00,56.0,53.0,30.12,East,90,0.0,0.0,89,0.00,,,0.04,,2013-01-22 12:43:00,
2013-01-22 07:53:00,55.0,52.0,30.12,WNW,284,0.0,1.0,89,0.00,,,0.04,,2013-01-22 12:53:00,
2013-01-22 08:04:00,55.0,52.0,30.13,WNW,283,0.0,1.0,89,0.00,,,0.04,,2013-01-22 13:04:00,
2013-01-22 08:13:00,55.0,52.0,30.13,WNW,283,0.0,1.0,89,0.00,,,0.04,,2013-01-22 13:13:00,
2013-01-22 08:23:00,55.0,52.0,30.14,East,90,0.0,0.0,89,0.00,,,0.04,,2013-01-22 13:23:00,
2013-01-22 08:33:00,56.0,52.0,30.15,East,90,0.0,0.0,87,0.00,,,0.04,,2013-01-22 13:33:00,
2013-01-22 08:43:00,56.0,52.0,30.15,East,90,0.0,0.0,87,0.00,,,0.04,,2013-01-22 13:43:00,
2013-01-22 08:53:00,57.0,53.0,30.14,West,274,0.0,1.0,86,0.00,,,0.04,,2013-01-22 13:53:00,
2013-01-22 09:03:00,58.0,53.0,30.15,NNW,333,0.0,3.0,83,0.00,,,0.04,,2013-01-22 14:03:00,
2013-01-22 09:13:00,58.0,53.0,30.15,NNW,333,0.0,3.0,83,0.00,,,0.04,,2013-01-22 14:13:00,
2013-01-22 09:23:00,59.0,53.0,30.16,North,354,0.0,3.0,80,0.00,,,0.04,,2013-01-22 14:23:00,
2013-01-22 09:34:00,61.0,54.0,30.17,NNW,331,0.0,3.0,78,0.00,,,0.04,,2013-01-22 14:34:00,
2013-01-22 09:44:00,61.0,54.0,30.17,NNW,331,0.0,3.0,78,0.00,,,0.04,,2013-01-22 14:44:00,
2013-01-22 09:54:00,62.0,55.0,30.17,NNW,346,1.0,4.0,77,0.00,,,0.04,,2013-01-22 14:54:00,
2013-01-22 10:03:00,62.0,54.0,30.18,North,354,1.0,5.0,76,0.00,,,0.04,,2013-01-22 15:03:00,
2013-01-22 10:13:00,62.0,54.0,30.18,North,354,1.0,5.0,76,0.00,,,0.04,,2013-01-22 15:13:00,
2013-01-22 10:24:00,63.0,55.0,30.19,NNW,343,1.0,4.0,75,0.00,,,0.04,,2013-01-22 15:24:00,
2013-01-22 10:34:00,64.0,55.0,30.19,North,357,1.0,5.0,73,0.00,,,0.04,,2013-01-22 15:34:00,
2013-01-22 10:43:00,64.0,55.0,30.19,North,357,1.0,5.0,73,0.00,,,0.04,,2013-01-22 15:43:00,
2013-01-22 10:54:00,65.0,56.0,30.20,NNW,344,1.0,6.0,74,0.00,,,0.04,,2013-01-22 15:54:00,
2013-01-22 11:03:00,65.0,55.0,30.19,NNE,19,2.0,6.0,71,0.00,,,0.04,,2013-01-22 16:03:00,
2013-01-22 11:13:00,65.0,55.0,30.19,NNE,19,2.0,6.0,71,0.00,,,0.04,,2013-01-22 16:13:00,
2013-01-22 11:23:00,66.0,55.0,30.20,North,4,2.0,6.0,68,0.00,,,0.04,,2013-01-22 16:23:00,
2013-01-22 11:33:00,66.0,53.0,30.20,NNE,24,2.0,6.0,63,0.00,,,0.04,,2013-01-22 16:33:00,
2013-01-22 11:43:00,66.0,53.0,30.20,NNE,24,2.0,6.0,63,0.00,,,0.04,,2013-01-22 16:43:00,
2013-01-22 11:54:00,66.0,53.0,30.20,North,8,2.0,10.0,62,0.00,,,0.04,,2013-01-22 16:54:00,
2013-01-22 12:03:00,68.0,54.0,30.20,NNE,20,2.0,5.0,61,0.00,,,0.04,,2013-01-22 17:03:00,
2013-01-22 12:13:00,68.0,54.0,30.20,NNE,20,2.0,5.0,61,0.00,,,0.04,,2013-01-22 17:13:00,
2013-01-22 12:23:00,68.0,53.0,30.20,NE,37,1.0,3.0,58,0.00,,,0.04,,2013-01-22 17:23:00,
2013-01-22 12:34:00,68.0,51.0,30.20,NNE,24,2.0,8.0,54,0.00,,,0.04,,2013-01-22 17:34:00,
2013-01-22 12:43:00,68.0,51.0,30.20,NNE,24,2.0,8.0,54,0.00,,,0.04,,2013-01-22 17:43:00,
2013-01-22 12:54:00,67.0,50.0,30.20,NNE,12,3.0,8.0,54,0.00,,,0.04,,2013-01-22 17:54:00,
2013-01-22 13:04:00,67.0,49.0,30.19,NE,51,1.0,5.0,53,0.00,,,0.04,,2013-01-22 18:04:00,
2013-01-22 13:13:00,67.0,49.0,30.19,NE,51,1.0,5.0,53,0.00,,,0.04,,2013-01-22 18:13:00,
2013-01-22 13:23:00,67.0,49.0,30.19,North,10,2.0,8.0,53,0.00,,,0.04,,2013-01-22 18:23:00,
2013-01-22 13:34:00,66.0,50.0,30.18,North,358,2.0,6.0,56,0.00,,,0.04,,2013-01-22 18:34:00,
2013-01-22 13:43:00,66.0,50.0,30.18,North,358,2.0,6.0,56,0.00,,,0.04,,2013-01-22 18:43:00,
2013-01-22 13:54:00,66.0,51.0,30.19,NNE,24,1.0,4.0,58,0.00,,,0.04,,2013-01-22 18:54:00,
2013-01-22 14:03:00,65.0,49.0,30.18,North,5,2.0,6.0,57,0.00,,,0.04,,2013-01-22 19:03:00,
2013-01-22 14:13:00,65.0,49.0,30.18,North,5,2.0,6.0,57,0.00,,,0.04,,2013-01-22 19:13:00,
2013-01-22 14:23:00,65.0,50.0,30.18,NNE,25,1.0,5.0,59,0.00,,,0.04,,2013-01-22 19:23:00,
2013-01-22 14:34:00,65.0,50.0,30.17,NE,46,2.0,6.0,58,0.00,,,0.03,,2013-01-22 19:34:00,
2013-01-22 14:43:00,65.0,50.0,30.17,NE,46,2.0,6.0,58,0.00,,,0.03,,2013-01-22 19:43:00,
2013-01-22 14:54:00,65.0,50.0,30.18,North,5,2.0,5.0,59,0.00,,,0.01,,2013-01-22 19:54:00,
2013-01-22 15:03:00,65.0,51.0,30.18,NE,38,1.0,3.0,61,0.00,,,0.01,,2013-01-22 20:03:00,
2013-01-22 15:13:00,65.0,51.0,30.18,NE,38,1.0,3.0,61,0.00,,,0.01,,2013-01-22 20:13:00,
2013-01-22 15:23:00,64.0,50.0,30.18,NNE,12,2.0,5.0,61,0.00,,,0.01,,2013-01-22 20:23:00,
2013-01-22 15:33:00,63.0,50.0,30.18,NNE,15,2.0,7.0,62,0.00,,,0.01,,2013-01-22 20:33:00,
2013-01-22 15:43:00,63.0,50.0,30.18,NNE,15,2.0,7.0,62,0.00,,,0.01,,2013-01-22 20:43:00,
2013-01-22 15:53:00,63.0,50.0,30.19,North,1,1.0,8.0,63,0.00,,,0.01,,2013-01-22 20:53:00,
2013-01-22 16:03:00,62.0,50.0,30.19,NNE,22,1.0,8.0,64,0.00,,,0.01,,2013-01-22 21:03:00,
2013-01-22 16:13:00,62.0,50.0,30.19,NNE,22,1.0,8.0,64,0.00,,,0.01,,2013-01-22 21:13:00,
2013-01-22 16:23:00,62.0,51.0,30.20,NNE,22,1.0,6.0,66,0.00,,,0.00,,2013-01-22 21:23:00,
2013-01-22 16:33:00,61.0,50.0,30.21,NNE,15,1.0,6.0,66,0.00,,,0.00,,2013-01-22 21:33:00,
2013-01-22 16:43:00,61.0,50.0,30.21,NNE,15,1.0,6.0,66,0.00,,,0.00,,2013-01-22 21:43:00,
2013-01-22 16:53:00,61.0,50.0,30.22,NNE,13,2.0,8.0,66,0.00,,,0.00,,2013-01-22 21:53:00,
2013-01-22 17:03:00,60.0,49.0,30.22,NNE,14,1.0,3.0,67,0.00,,,0.00,,2013-01-22 22:03:00,
2013-01-22 17:13:00,60.0,49.0,30.22,NNE,14,1.0,3.0,67,0.00,,,0.00,,2013-01-22 22:13:00,
2013-01-22 17:23:00,60.0,49.0,30.22,NNE,12,1.0,8.0,67,0.00,,,0.00,,2013-01-22 22:23:00,
2013-01-22 17:33:00,60.0,49.0,30.22,NNE,12,1.0,8.0,67,0.00,,,0.00,,2013-01-22 22:33:00,
2013-01-22 17:43:00,60.0,49.0,30.23,NNE,14,0.0,5.0,67,0.00,,,0.00,,2013-01-22 22:43:00,
2013-01-22 17:53:00,59.0,48.0,30.23,North,358,1.0,4.0,67,0.00,,,0.00,,2013-01-22 22:53:00,
2013-01-22 18:03:00,59.0,48.0,30.23,NNE,26,0.0,4.0,66,0.00,,,0.00,,2013-01-22 23:03:00,
2013-01-22 18:12:00,59.0,48.0,30.23,NNE,26,0.0,4.0,66,0.00,,,0.00,,2013-01-22 23:12:00,
2013-01-22 18:24:00,58.0,47.0,30.23,NNE,17,0.0,2.0,67,0.00,,,0.00,,2013-01-22 23:24:00,
2013-01-22 18:33:00,58.0,47.0,30.24,NNE,31,0.0,1.0,68,0.00,,,0.00,,2013-01-22 23:33:00,
2013-01-22 18:43:00,58.0,47.0,30.24,NNE,31,0.0,1.0,68,0.00,,,0.00,,2013-01-22 23:43:00,
2013-01-22 18:53:00,57.0,47.0,30.24,North,1,0.0,2.0,68,0.00,,,0.00,,2013-01-22 23:53:00,
2013-01-22 19:03:00,57.0,47.0,30.24,NNE,23,0.0,2.0,69,0.00,,,0.00,,2013-01-23 00:03:00,
2013-01-22 19:12:00,57.0,47.0,30.24,NNE,23,0.0,2.0,69,0.00,,,0.00,,2013-01-23 00:12:00,
2013-01-22 19:23:00,56.0,46.0,30.25,North,357,0.0,1.0,70,0.00,,,0.00,,2013-01-23 00:23:00,
2013-01-22 19:33:00,56.0,46.0,30.24,East,90,0.0,0.0,70,0.00,,,0.00,,2013-01-23 00:33:00,
2013-01-22 19:43:00,56.0,46.0,30.24,East,90,0.0,0.0,70,0.00,,,0.00,,2013-01-23 00:43:00,
2013-01-22 19:52:00,56.0,47.0,30.25,East,90,0.0,0.0,72,0.00,,,0.00,,2013-01-23 00:52:00,
2013-01-22 20:03:00,55.0,47.0,30.25,East,90,0.0,0.0,74,0.00,,,0.00,,2013-01-23 01:03:00,
2013-01-22 20:13:00,55.0,47.0,30.25,East,90,0.0,0.0,74,0.00,,,0.00,,2013-01-23 01:13:00,
2013-01-22 20:23:00,54.0,47.0,30.25,East,90,0.0,0.0,77,0.00,,,0.00,,2013-01-23 01:23:00,
2013-01-22 20:33:00,53.0,46.0,30.26,East,90,0.0,0.0,78,0.00,,,0.00,,2013-01-23 01:33:00,
2013-01-22 20:43:00,53.0,46.0,30.26,East,90,0.0,0.0,78,0.00,,,0.00,,2013-01-23 01:43:00,
2013-01-22 20:53:00,52.0,46.0,30.26,East,90,0.0,0.0,80,0.00,,,0.00,,2013-01-23 01:53:00,
2013-01-22 21:03:00,52.0,47.0,30.27,East,90,0.0,0.0,82,0.00,,,0.00,,2013-01-23 02:03:00,
2013-01-22 21:13:00,52.0,47.0,30.27,East,90,0.0,0.0,82,0.00,,,0.00,,2013-01-23 02:13:00,
2013-01-22 21:23:00,52.0,47.0,30.27,East,90,0.0,0.0,83,0.00,,,0.00,,2013-01-23 02:23:00,
2013-01-22 21:33:00,51.0,47.0,30.27,East,90,0.0,0.0,85,0.00,,,0.00,,2013-01-23 02:33:00,
2013-01-22 21:43:00,51.0,47.0,30.27,East,90,0.0,0.0,85,0.00,,,0.00,,2013-01-23 02:43:00,
2013-01-22 21:53:00,51.0,47.0,30.27,East,90,0.0,0.0,87,0.00,,,0.00,,2013-01-23 02:53:00,
2013-01-22 22:03:00,50.0,47.0,30.27,East,90,0.0,0.0,88,0.00,,,0.00,,2013-01-23 03:03:00,
2013-01-22 22:13:00,50.0,47.0,30.27,East,90,0.0,0.0,88,0.00,,,0.00,,2013-01-23 03:13:00,
2013-01-22 22:23:00,50.0,47.0,30.28,East,90,0.0,0.0,90,0.00,,,0.00,,2013-01-23 03:23:00,
2013-01-22 22:33:00,49.0,46.0,30.28,East,90,0.0,0.0,91,0.00,,,0.00,,2013-01-23 03:33:00,
2013-01-22 22:43:00,49.0,46.0,30.28,East,90,0.0,0.0,91,0.00,,,0.00,,2013-01-23 03:43:00,
2013-01-22 22:53:00,49.0,46.0,30.29,East,90,0.0,0.0,91,0.00,,,0.00,,2013-01-23 03:53:00,
2013-01-22 23:03:00,48.0,45.0,30.28,East,90,0.0,0.0,91,0.00,,,0.00,,2013-01-23 04:03:00,
2013-01-22 23:12:00,48.0,45.0,30.28,East,90,0.0,0.0,91,0.00,,,0.00,,2013-01-23 04:12:00,
2013-01-22 23:23:00,48.0,46.0,30.28,East,90,0.0,0.0,92,0.00,,,0.00,,2013-01-23 04:23:00,
2013-01-22 23:33:00,48.0,46.0,30.28,East,90,0.0,0.0,93,0.00,,,0.00,,2013-01-23 04:33:00,
2013-01-22 23:43:00,48.0,46.0,30.28,East,90,0.0,0.0,93,0.00,,,0.00,,2013-01-23 04:43:00,
2013-01-22 23:53:00,48.0,46.0,30.28,East,90,0.0,0.0,93,0.00,,,0.00,,2013-01-23 04:53:00,